This demonstration page uses our WeatherBlox Daily Observations layout. Learn more.

Hourly Observations for August 6, 2017

Temp ( °F °C ) Dew Point ( °F °C ) Humidity (%) Winds ( mph kmh ) Pressure ( in mb ) Visibility ( mi km ) Precip ( " mm )
12:15 am 00:15 Cloudy 65 18.6 63 17.4 93 93 E 9 15 29.88 1012 10 16.09344 0 0
12:35 am 00:35 Cloudy 65 18.6 63 17.3 92 92 E 5 7 29.91 1013 10 16.09344 0 0
12:55 am 00:55 Cloudy 65 18.6 63 17.3 92 92 E 5 7 29.91 1013 10 16.09344 0 0
1:15 am 01:15 Cloudy 65 18.5 63 17.2 92 92 E 7 11 29.91 1013 10 16.09344 0 0
1:35 am 01:35 Cloudy 65 18.2 63 17.1 93 93 E 6 9 29.91 1013 10 16.09344 0 0
1:55 am 01:55 Cloudy 64 18 63 17 94 94 E 9 15 29.91 1013 7 11.265408 0 0
2:15 am 02:15 Cloudy 64 17.8 62 16.8 94 94 E 6 9 29.91 1013 7 11.265408 0 0
2:35 am 02:35 Cloudy 64 17.6 62 16.6 94 94 E 6 9 29.91 1013 7 11.265408 0 0
2:55 am 02:55 Cloudy 64 17.5 62 16.5 94 94 NE 7 11 29.91 1013 7 11.265408 0 0
3:15 am 03:15 Cloudy with Mist and Fog 64 17.5 62 16.5 94 94 ENE 6 9 29.91 1013 5 8.04672 0 0
3:35 am 03:35 Cloudy with Mist and Fog 63 17.2 61 16.3 94 94 E 5 7 29.91 1013 4 6.437376 0 0
3:55 am 03:55 Cloudy with Mist and Fog 63 17.1 61 16.2 94 94 NE 5 7 29.91 1013 5 8.04672 0 0
4:15 am 04:15 Cloudy with Mist and Fog 63 17 61 16.2 95 95 ENE 7 11 29.91 1013 5 8.04672 0 0
4:35 am 04:35 Cloudy with Mist and Fog 62 16.7 61 16 96 96 E 8 13 29.91 1013 4 6.437376 0 0
4:55 am 04:55 Cloudy with Mist and Fog 62 16.6 61 16 96 96 E 7 11 29.91 1013 2 3.218688 0 0
5:15 am 05:15 Cloudy with Mist and Fog 62 16.6 61 16 96 96 E 3 6 29.91 1013 2 3.218688 0 0
5:35 am 05:35 Cloudy with Mist and Fog 62 16.5 61 16 97 97 Calm 29.91 1013 1.5 2.414016 0 0
5:55 am 05:55 Cloudy with Mist and Fog 62 16.5 61 16 97 97 Calm 29.91 1013 1 1.609344 0 0
6:15 am 06:15 Cloudy with Fog 62 16.5 61 16 97 97 Calm 29.91 1013 0.5 0.804672 0 0
6:35 am 06:35 Cloudy with Fog 62 16.5 61 15.9 96 96 Calm 29.94 1014 0.5 0.804672 0 0
6:55 am 06:55 Cloudy with Fog 62 16.5 60 15.8 96 96 Calm 29.94 1014 0.5 0.804672 0 0
7:15 am 07:15 Cloudy with Fog 62 16.5 61 15.9 96 96 Calm 29.94 1014 0.5 0.804672 0 0
7:35 am 07:35 Cloudy with Mist and Fog 62 16.5 61 16 97 97 Calm 29.94 1014 0.75 1.207008 0 0
7:55 am 07:55 Cloudy with Mist and Fog 62 16.6 61 16.1 97 97 ENE 3 6 29.94 1014 0.75 1.207008 0 0
8:15 am 08:15 Cloudy with Mist and Fog 62 16.7 61 16.2 97 97 E 5 7 29.94 1014 0.75 1.207008 0 0
8:35 am 08:35 Cloudy with Fog 63 17 62 16.5 97 97 ENE 3 6 29.94 1014 0.5 0.804672 0 0
8:55 am 08:55 Cloudy with Mist and Fog 63 17 62 16.5 97 97 ENE 5 7 29.94 1014 1 1.609344 0 0
9:15 am 09:15 Cloudy with Mist and Fog 62 16.8 61 16.3 97 97 NE 6 9 29.94 1014 2 3.218688 0 0
9:35 am 09:35 Cloudy with Mist and Fog 63 17.1 62 16.6 97 97 N 3 6 29.97 1015 2.5 4.02336 0 0
9:55 am 09:55 Cloudy with Mist and Fog 63 17.2 62 16.6 96 96 NNE 3 6 29.97 1015 1.75 2.816352 0 0
10:15 am 10:15 Cloudy with Mist and Fog 63 17.2 62 16.7 97 97 NNE 5 7 29.97 1015 2 3.218688 0 0
10:35 am 10:35 Cloudy with Mist and Fog 63 17.2 62 16.6 96 96 NNE 5 7 29.97 1015 3 4.828032 0 0
10:55 am 10:55 Cloudy with Mist and Fog 63 17.2 62 16.6 96 96 NNE 3 6 29.97 1015 3 4.828032 0 0
11:15 am 11:15 Cloudy with Mist and Fog 63 17.2 62 16.6 96 96 Calm 29.97 1015 3 4.828032 0 0
11:35 am 11:35 Cloudy with Mist and Fog 63 17.2 62 16.6 96 96 Calm 30 1016 3 4.828032 0 0
11:55 am 11:55 Cloudy with Mist and Fog 64 17.5 62 16.7 95 95 Calm 30 1016 2 3.218688 0 0
12:15 pm 12:15 Cloudy with Mist and Fog 64 17.7 63 17 96 96 Calm 30 1016 3 4.828032 0 0
12:35 pm 12:35 Cloudy with Mist and Fog 64 18 63 17 94 94 Calm 30 1016 2.5 4.02336 0 0
12:55 pm 12:55 Cloudy 65 18.2 63 17 93 93 NE 6 9 30 1016 7 11.265408 0 0
1:15 pm 13:15 Cloudy 65 18.5 63 17 91 91 NNE 5 7 30 1016 7 11.265408 0 0
1:35 pm 13:35 Cloudy 66 18.7 63 17 90 90 ENE 3 6 30 1016 7 11.265408 0 0
1:55 pm 13:55 Cloudy 67 19.5 63 17.4 88 88 E 3 6 30 1016 10 16.09344 0 0
2:15 pm 14:15 Cloudy 68 20 63 17.4 85 85 ENE 3 6 30 1016 10 16.09344 0 0
2:35 pm 14:35 Cloudy 69 20.7 63 17.4 81 81 E 6 9 29.97 1015 10 16.09344 0 0
2:55 pm 14:55 Cloudy 70 21.1 64 17.5 80 80 NE 7 11 29.97 1015 10 16.09344 0 0
3:15 pm 15:15 Cloudy 70 21.2 64 17.7 81 81 ENE 7 11 29.97 1015 10 16.09344 0 0
3:35 pm 15:35 Mostly Cloudy 70 21 63 17.1 79 79 E 6 9 29.97 1015 10 16.09344 0 0
3:55 pm 15:55 Mostly Cloudy 72 22 63 17.4 75 75 ENE 7 11 29.94 1014 10 16.09344 0 0
4:15 pm 16:15 Mostly Cloudy 72 22.1 63 17 73 73 ENE 7 11 29.94 1014 10 16.09344 0 0
4:35 pm 16:35 Mostly Cloudy 71 21.8 62 16.9 74 74 ENE 8 13 29.94 1014 10 16.09344 0 0
4:55 pm 16:55 Partly Cloudy 72 22.1 64 17.5 75 75 E 8 13 29.94 1014 10 16.09344 0 0
5:15 pm 17:15 Partly Cloudy 72 22.2 62 16.9 72 72 NE 5 7 29.94 1014 10 16.09344 0 0
5:35 pm 17:35 Partly Cloudy 71 21.9 62 16.9 73 73 E 7 11 29.94 1014 10 16.09344 0 0
5:55 pm 17:55 Partly Cloudy 71 21.5 63 17.1 76 76 E 10 17 29.94 1014 10 16.09344 0 0
6:15 pm 18:15 Partly Cloudy 70 21.1 63 17.2 79 79 E 9 15 29.94 1014 10 16.09344 0 0
6:35 pm 18:35 Partly Cloudy 70 21 62 16.6 76 76 E 10 17 29.94 1014 10 16.09344 0 0
6:55 pm 18:55 Partly Cloudy 69 20.7 62 16.6 77 77 E 7 11 29.94 1014 10 16.09344 0 0
7:15 pm 19:15 Sunny 69 20.5 62 16.5 78 78 E 6 9 29.94 1014 10 16.09344 0 0
7:35 pm 19:35 Partly Cloudy 68 20.1 62 16.4 79 79 E 7 11 29.94 1014 10 16.09344 0 0
7:55 pm 19:55 Sunny 67 19.6 61 16.3 81 81 E 7 11 29.97 1015 10 16.09344 0 0
8:15 pm 20:15 Sunny 66 19 62 16.5 86 86 ENE 6 9 30 1016 10 16.09344 0 0
8:35 pm 20:35 Partly Cloudy 65 18.2 62 16.5 90 90 ENE 6 9 30 1016 10 16.09344 0 0
8:55 pm 20:55 Clear 64 17.5 61 16.1 92 92 ENE 6 9 30 1016 10 16.09344 0 0
9:15 pm 21:15 Clear 63 17.1 60 15.8 92 92 ENE 5 7 30 1016 10 16.09344 0 0
9:35 pm 21:35 Clear 62 16.7 60 15.5 93 93 E 3 6 30 1016 7 11.265408 0 0
9:55 pm 21:55 Clear 62 16.6 60 15.3 92 92 ESE 5 7 30.06 1018 10 16.09344 0 0
10:15 pm 22:15 Clear 63 17.2 61 16 93 93 E 8 13 30 1016 10 16.09344 0 0
10:35 pm 22:35 Clear 64 17.5 61 16 91 91 ENE 6 9 30.03 1017 10 16.09344 0 0
10:55 pm 22:55 Clear 63 17.1 60 15.8 92 92 NE 3 6 30.09 1019 7 11.265408 0 0
11:15 pm 23:15 Partly Cloudy 62 16.5 60 15.5 94 94 NE 3 6 30.09 1019 7 11.265408 0 0
11:35 pm 23:35 Partly Cloudy 61 16.1 59 15.2 94 94 E 3 6 30.06 1018 7 11.265408 0 0
11:55 pm 23:55 Clear 61 16.2 59 15.2 94 94 SSE 3 6 30.06 1018 7 11.265408 0 0

Powered by AerisWeather